{"data":{"norad_id":61722,"intl_designator":"2024-196R","name":"STARLINK-32438","alt_names":[],"object_type":"PAYLOAD","status":"ACTIVE","operator":null,"country":"US","launch_date":"2024-10-30","launch_site_code":"AFETR","launch_vehicle":null,"mission":null,"orbit_class":"UNKNOWN","rcs_meters":null,"size_class":null,"mass_kg":null,"dimensions":null,"purposes":["comms"],"wikipedia_slug":null,"has_3d_model":false,"image_url":null,"decayed_at":null,"tle_current":{"epoch":"2026-09-21T00:46:36.870816Z","epoch_age_seconds":142571,"freshness":"FRESH","line1":"1 61722U 24196R   26264.03237119  .00000681  00000+0  31296-4 0  9995","line2":"2 61722  53.1601 271.2139 0001473  88.9292 271.1879 15.34391822107106","mean_motion":15.34391822,"eccentricity":0.0001473,"inclination_deg":53.1601,"raan_deg":271.2139,"arg_perigee_deg":88.9292,"mean_anomaly_deg":271.1879,"bstar":3.1296e-5,"rev_number":10710,"period_min":93.848258271022,"perigee_km":461.71988770672,"apogee_km":463.73520640228,"semimajor_km":6840.8645470545,"source":"CELESTRAK","updated_at":"2026-09-22T09:00:49.437847Z"}}}